Weather History for Mt. Clemens, MI

Change the Weather History Date:

Friday, September 27, 2013

  Actual Average Record
Temperature  
Mean Temperature 60 °F -  
Max Temperature 73 °F 68 °F 87 °F (1998)
Min Temperature 46 °F 48 °F 33 °F (1965)
Degree Days  
Heating Degree Days 6    
Growing Degree Days 10 (Base 50)    
Moisture  
Dew Point 51 °F    
Average Humidity 92    
Maximum Humidity 100    
Minimum Humidity 50    
Precipitation  
Precipitation 0.00 in - - ()
Sea Level Pressure  
Sea Level Pressure 30.18 in    
Wind  
Wind Speed 2 mph (WNW)    
Max Wind Speed 8 mph    
Max Gust Speed -    
Visibility 6 miles    
Events Rain    
Averages and records for this station are not official NWS values.
T = Trace of Precipitation, MM = Missing Value Source: NWS Daily Summary

Daily Weather History Graph

Daily Weather History Graph

Search for Another Location

Airport:

Trip Planner

Search our weather history database for the weather conditions in past years. The results will help you decide how hot, cold, wet, or windy it might be!

Date:

Astronomy

Sep. 27, 2013 Rise Set
Actual Time 7:24 AM EDT 7:19 PM EDT
Civil Twilight 6:56 AM EDT 7:47 PM EDT
Nautical Twilight 6:23 AM EDT 8:20 PM EDT
Astronomical Twilight 5:50 AM EDT 8:53 PM EDT
Moon 12:11 AM EDT (9/27) 3:03 PM EDT (9/27)
Length of Visible Light 12h 51m
Length of Day
11h 54m
Last Quarter, 45% of the Moon is Illuminated
Sep 27
Last Quarter
Oct 4
New
Oct 11
First Quarter
Oct 18
Full
Oct 26
Last Quarter

Hourly Weather History & Observations

Time (EDT) Temp. Windchill Dew Point Humidity Pressure Visibility Wind Dir Wind Speed Gust Speed Precip Events Conditions
12:58 AM 52.3 °F - 51.3 °F 96% 30.16 in 10.0 mi WNW 1.2 mph - N/A   Clear
1:03 AM 51.8 °F - 51.8 °F 100% 30.15 in 2.0 mi NW 2.3 mph - N/A   Clear
1:13 AM 51.8 °F - 50.0 °F 94% 30.15 in 8.0 mi NNW 2.3 mph - N/A   Clear
1:18 AM 50.0 °F - 50.0 °F 100% 30.15 in 10.0 mi NW 2.3 mph - N/A   Clear
1:58 AM 51.8 °F - 51.4 °F 99% 30.16 in 10.0 mi NW 1.2 mph - N/A   Clear
2:38 AM 51.8 °F - 51.8 °F 100% 30.15 in 1.8 mi WNW 2.3 mph - N/A   Clear
2:43 AM 51.8 °F - 50.0 °F 94% 30.15 in 0.8 mi WNW 2.3 mph - N/A   Clear
2:48 AM 51.8 °F - 51.8 °F 100% 30.15 in 1.5 mi WNW 2.3 mph - N/A   Clear
2:53 AM 51.8 °F - 50.0 °F 94% 30.15 in 6.0 mi West 1.2 mph - N/A   Clear
2:58 AM 50.0 °F - 50.0 °F 100% 30.16 in 1.5 mi WNW 1.2 mph - N/A   Clear
3:03 AM 50.0 °F - 50.0 °F 100% 30.15 in 1.5 mi WNW 1.2 mph - N/A   Clear
3:08 AM 50.0 °F - 50.0 °F 100% 30.15 in 8.0 mi West 1.2 mph - N/A   Clear
3:13 AM 50.0 °F - 50.0 °F 100% 30.15 in 10.0 mi West 2.3 mph - N/A   Clear
3:18 AM 50.0 °F - 50.0 °F 100% 30.15 in 3.0 mi WNW 2.3 mph - N/A   Clear
3:23 AM 50.0 °F - 50.0 °F 100% 30.15 in 1.8 mi WNW 2.3 mph - N/A   Clear
3:28 AM 50.0 °F - 50.0 °F 100% 30.16 in 3.0 mi West 3.5 mph - N/A   Clear
3:33 AM 50.0 °F - 50.0 °F 100% 30.15 in 8.0 mi West 3.5 mph - N/A   Clear
3:43 AM 50.0 °F - 48.2 °F 94% 30.15 in 6.0 mi WNW 2.3 mph - N/A   Clear
3:48 AM 48.2 °F - 48.2 °F 100% 30.15 in 5.0 mi WNW 1.2 mph - N/A   Clear
3:58 AM 48.2 °F - 48.2 °F 100% 30.16 in 5.0 mi Calm Calm - N/A   Clear
4:03 AM 48.2 °F - 46.4 °F 93% 30.15 in 7.0 mi NNW 1.2 mph - N/A   Clear
4:13 AM 48.2 °F - 48.2 °F 100% 30.15 in 4.0 mi West 2.3 mph - N/A   Clear
4:23 AM 50.0 °F - 50.0 °F 100% 30.16 in 4.0 mi West 3.5 mph - N/A   Clear
4:33 AM 48.2 °F - 48.2 °F 100% 30.16 in 8.0 mi West 2.3 mph - N/A   Clear
4:38 AM 48.2 °F - 48.2 °F 100% 30.16 in 10.0 mi WNW 2.3 mph - N/A   Clear
4:43 AM 48.2 °F - 48.2 °F 100% 30.16 in 9.0 mi WNW 2.3 mph - N/A   Clear
4:53 AM 48.2 °F - 48.2 °F 100% 30.16 in 10.0 mi WNW 2.3 mph - N/A   Clear
4:58 AM 48.4 °F - 48.2 °F 99% 30.17 in 9.0 mi WNW 2.3 mph - N/A   Clear
5:08 AM 48.2 °F - 48.2 °F 100% 30.17 in 10.0 mi West 2.3 mph - N/A   Clear
5:48 AM 46.4 °F - 46.4 °F 100% 30.18 in 9.0 mi West 2.3 mph - N/A   Clear
5:53 AM 48.2 °F - 46.4 °F 93% 30.18 in 10.0 mi West 3.5 mph - N/A   Clear
5:58 AM 48.2 °F - 48.2 °F 100% 30.19 in 2.5 mi West 3.5 mph - N/A   Clear
6:03 AM 48.2 °F - 48.2 °F 100% 30.18 in 1.2 mi West 2.3 mph - N/A   Clear
6:08 AM 48.2 °F - 48.2 °F 100% 30.18 in 2.0 mi West 2.3 mph - N/A   Clear
6:13 AM 48.2 °F - 48.2 °F 100% 30.18 in 7.0 mi WNW 2.3 mph - N/A   Clear
6:33 AM 48.2 °F - 48.2 °F 100% 30.19 in 2.5 mi Calm Calm - N/A   Clear
6:38 AM 48.2 °F - 46.4 °F 93% 30.19 in 1.0 mi Calm Calm - N/A   Clear
6:43 AM 48.2 °F - 48.2 °F 100% 30.19 in 0.8 mi Calm Calm - N/A   Clear
6:48 AM 48.2 °F - 48.2 °F 100% 30.19 in 1.0 mi Calm Calm - N/A   Clear
7:02 AM 48.2 °F - 48.2 °F 100% 30.19 in 1.5 mi Calm Calm - N/A   Clear
7:07 AM 48.2 °F - 48.2 °F 100% 30.20 in 1.8 mi North 2.3 mph - N/A   Clear
7:12 AM 48.2 °F - 48.2 °F 100% 30.20 in 1.8 mi North 2.3 mph - N/A   Clear
7:17 AM 46.4 °F - 46.4 °F 100% 30.20 in 3.0 mi North 2.3 mph - N/A   Clear
7:22 AM 46.4 °F - 46.4 °F 100% 30.20 in 1.8 mi North 2.3 mph - N/A   Clear
7:27 AM 46.4 °F 45.2 °F 46.4 °F 100% 30.20 in 2.0 mi North 3.5 mph - N/A   Clear
7:32 AM 48.2 °F - 46.4 °F 93% 30.20 in 3.0 mi North 1.2 mph - N/A   Clear
7:37 AM 48.2 °F - 48.2 °F 100% 30.20 in 0.8 mi North 1.2 mph - N/A   Clear
7:45 AM 48.2 °F - 48.2 °F 100% 30.21 in 4.0 mi Calm Calm - N/A   Clear
7:55 AM 48.9 °F - 48.6 °F 99% 30.24 in 6.0 mi Calm Calm - N/A   Clear
8:55 AM 56.5 °F - 55.4 °F 96% 30.24 in 10.0 mi Calm Calm - N/A   Clear
9:55 AM 62.1 °F - 54.5 °F 76% 30.26 in 10.0 mi NE 5.8 mph - N/A   Clear
10:55 AM 64.2 °F - 56.7 °F 76% 30.27 in 10.0 mi Variable 3.5 mph - N/A   Clear
11:55 AM 67.6 °F - 58.5 °F 72% 30.26 in 12.0 mi ENE 5.8 mph - N/A   Partly Cloudy
12:55 PM 69.8 °F - 58.1 °F 66% 30.26 in 12.0 mi East 6.9 mph - N/A   Partly Cloudy
1:55 PM 71.2 °F - 56.5 °F 60% 30.25 in 12.0 mi Variable 4.6 mph - N/A   Partly Cloudy
2:55 PM 72.0 °F - 55.0 °F 55% 30.23 in 12.0 mi Variable 3.5 mph - N/A   Partly Cloudy
3:55 PM 73.2 °F - 54.0 °F 51% 30.21 in 12.0 mi ENE 3.5 mph - N/A   Partly Cloudy
4:55 PM 73.2 °F - 53.6 °F 50% 30.20 in 12.0 mi Variable 4.6 mph - N/A   Partly Cloudy
5:55 PM 70.2 °F - 55.0 °F 59% 30.20 in 12.0 mi SSE 8.1 mph - N/A   Partly Cloudy
6:55 PM 65.1 °F - 57.4 °F 76% 30.21 in 12.0 mi SSE 6.9 mph - N/A   Partly Cloudy
7:55 PM 61.2 °F - 57.2 °F 87% 30.21 in 12.0 mi SSE 5.8 mph - N/A   Partly Cloudy
7:56 PM 60.8 °F - 57.2 °F 88% 30.19 in 3.0 mi SSE 5.8 mph - N/A Rain Light Rain
8:01 PM 60.8 °F - 57.2 °F 88% 30.19 in 3.0 mi SSE 5.8 mph - N/A Rain Light Rain
8:02 PM 60.8 °F - 57.2 °F 88% 30.19 in 2.5 mi SSE 5.8 mph - N/A   Clear
8:07 PM 60.8 °F - 57.2 °F 88% 30.18 in 10.0 mi SSE 8.1 mph - N/A   Clear
8:58 PM 60.1 °F - 56.8 °F 89% 30.19 in 10.0 mi SE 6.9 mph - 0.00 in   Clear
9:58 PM 58.8 °F - 55.9 °F 90% 30.20 in 10.0 mi SE 5.8 mph - N/A   Clear
10:58 PM 60.4 °F - 56.5 °F 87% 30.21 in 10.0 mi ESE 5.8 mph - N/A   Clear
11:58 PM 59.4 °F - 57.4 °F 93% 30.20 in 10.0 mi East 5.8 mph - N/A   Clear